Tracking 30743 objects as of 22-Jun-2025
HD Live streaming from Space Station
objects crossing your sky now

ONEWEB-0658

Track ONEWEB-0658 now!
10-day predictions
ONEWEB-0658 is classified as:


NORAD ID: 55819
Int'l Code: 2023-029Z
Perigee: 1,191.2 km
Apogee: 1,194.6 km
Inclination: 87.9 °
Period: 109.1 minutes
Semi major axis: 7563 km
RCS: Unknown
Launch date: March 9, 2023
Source: United Kingdom (UK)
Launch site: AIR FORCE EASTERN TEST RANGE (AFETR)
Your satellite tracking list
Your tracking list is empty




NASA's NSSDC Master Catalog

Two Line Element Set (TLE):
1 55819U 23029Z   25172.86265259  .00000039  00000-0  65753-4 0  9996
2 55819  87.9215  16.5547 0002292  94.9482 265.1912 13.19724714111391
Source of the keplerian elements: AFSPC